Date,TemperatureHighF,TemperatureAvgF,TemperatureLowF,DewpointHighF,DewpointAvgF,DewpointLowF,HumidityHigh,HumidityAvg,HumidityLow,PressureMaxIn,PressureMinIn,WindSpeedMaxMPH,WindSpeedAvgMPH,GustSpeedMaxMPH,PrecipitationSumIn
2014-1-1,17.8,15.1,12.4,12.8,11.2,8.2,88,84,78,30.36,30.21,16,4,18,0.13
2014-1-2,14.1,10.9,-5.2,10.2,4.5,-13.1,86,76,60,30.41,30.12,25,9,25,0.05
2014-1-3,15.4,3.8,-12.2,6.3,-4.5,-18.1,82,69,54,30.53,30.13,30,6,30,0.00
2014-1-4,33.1,24.5,14.4,25.9,15.4,6.3,88,68,57,30.13,29.95,35,9,35,0.08
2014-1-5,29.4,25.8,18.1,28.4,24.1,15.6,96,93,88,30.04,29.78,32,7,32,0.30
2014-1-6,18.1,-6.2,-14.8,15.5,-12.7,-23.3,90,73,63,30.30,29.85,33,10,33,0.00
2014-1-7,1.7,-7.7,-15.8,-7.8,-15.2,-22.8,73,69,63,30.44,30.29,25,6,25,0.00
2014-1-8,22.9,-1.0,-16.6,12.5,-8.3,-23.8,83,71,59,30.60,30.40,9,0,9,0.01
2014-1-9,23.6,4.9,-13.5,21.2,-0.0,-19.5,91,80,73,30.63,30.30,13,4,15,0.03
2014-1-10,41.2,33.9,23.6,41.2,33.4,21.3,100,98,91,30.30,29.61,25,6,25,0.44
2014-1-11,41.6,36.9,32.7,41.6,36.1,28.8,100,97,84,29.75,29.42,22,7,22,0.09
2014-1-12,40.3,33.7,29.3,31.2,28.3,24.8,88,81,69,29.98,29.74,27,8,30,0.00
2014-1-13,46.8,40.5,33.4,36.8,32.7,28.5,85,74,67,29.76,29.57,26,5,26,0.00
2014-1-14,37.3,29.1,21.0,31.0,23.4,16.7,93,80,61,29.84,29.67,31,7,35,0.02
2014-1-15,24.7,20.9,14.9,19.2,15.3,8.6,89,79,69,30.08,29.84,22,6,22,0.01
2014-1-16,29.5,23.7,14.9,27.4,19.8,9.2,92,85,78,30.00,29.61,28,9,28,0.11
2014-1-17,27.0,18.8,12.6,22.2,12.7,5.7,84,77,71,30.01,29.70,15,4,16,0.00
2014-1-18,18.9,15.8,9.7,15.1,11.0,6.3,88,81,70,30.00,29.86,22,5,22,0.11
2014-1-19,36.5,23.4,10.4,28.0,18.3,7.3,91,81,70,29.88,29.57,31,6,31,0.00
2014-1-20,36.3,29.7,15.6,29.6,23.7,9.1,86,79,71,30.04,29.56,26,7,27,0.00
2014-1-21,15.4,9.6,3.5,8.9,-1.9,-6.9,79,60,43,30.28,30.04,22,7,22,0.00
2014-1-22,12.6,8.0,3.2,8.9,1.2,-3.9,85,74,61,30.25,29.98,19,6,26,0.02
2014-1-23,14.3,7.7,2.2,9.1,3.1,-2.7,85,81,74,30.58,30.08,22,6,22,0.04
2014-1-24,20.3,6.5,-8.6,17.8,-0.4,-14.4,90,74,55,30.59,29.62,38,9,38,0.01
2014-1-25,27.5,19.5,10.5,27.0,13.7,2.6,99,79,57,29.87,29.41,38,12,38,0.15
2014-1-26,29.3,16.9,5.2,23.6,10.9,-2.8,89,77,68,29.86,29.43,31,8,32,0.19
2014-1-27,18.6,5.0,-8.6,11.6,-0.3,-14.5,85,78,61,30.45,29.63,35,9,37,0.01
2014-1-28,5.0,-5.4,-14.8,-7.2,-13.5,-21.0,76,68,50,30.51,30.33,20,4,20,0.00
2014-1-29,19.5,6.0,-7.5,5.2,-4.0,-14.5,77,64,40,30.33,30.18,25,4,25,0.00
2014-1-30,32.2,22.5,14.6,25.5,12.2,3.5,81,65,56,30.18,29.77,34,11,35,0.00
2014-1-31,32.7,27.5,24.4,26.3,21.2,18.3,86,77,69,30.17,29.90,16,4,19,0.01
2014-2-1,32.7,28.3,24.7,32.2,26.8,21.1,100,94,86,30.13,29.83,14,3,14,0.43
2014-2-2,25.0,21.8,9.3,22.5,16.8,3.5,91,81,70,30.34,30.06,18,5,18,0.00
2014-2-3,30.1,6.8,-10.0,19.3,-0.4,-15.0,86,73,53,30.46,30.30,13,1,13,0.00
2014-2-4,23.8,12.4,-0.2,18.8,5.4,-6.6,86,74,49,30.51,30.13,21,2,21,0.00
2014-2-5,25.3,19.8,14.6,18.9,15.0,8.4,90,82,74,30.45,29.99,25,10,25,0.06
2014-2-6,16.5,8.4,-4.3,12.4,1.6,-11.1,85,74,59,30.46,30.41,19,4,19,0.00
2014-2-7,12.8,2.2,-8.2,-1.8,-6.6,-13.8,80,67,49,30.48,30.41,22,4,22,0.00
2014-2-8,17.0,11.0,3.9,10.4,4.2,-2.6,85,74,63,30.43,30.20,13,3,13,0.05
2014-2-9,19.7,14.6,7.0,12.9,9.0,1.0,88,79,62,30.28,30.13,20,3,20,0.01
2014-2-10,18.0,8.7,-2.4,8.2,1.6,-9.4,81,73,59,30.49,30.28,18,4,19,0.00
2014-2-11,23.5,4.8,-9.8,10.2,-3.2,-16.6,83,70,46,30.60,30.48,12,1,12,0.00
2014-2-12,24.8,4.6,-15.8,9.4,-4.2,-22.2,83,68,49,30.51,30.13,16,2,16,0.00
2014-2-13,31.0,18.4,1.3,24.6,8.9,-5.0,83,67,49,30.13,29.53,25,4,26,0.00
2014-2-14,31.0,21.8,16.5,24.9,15.9,11.6,87,78,69,29.91,29.53,31,8,31,0.00
2014-2-15,29.0,20.0,11.9,21.9,13.5,7.7,88,77,57,30.13,29.90,15,2,16,0.00
2014-2-16,28.2,21.2,15.4,20.9,15.8,8.2,86,80,66,30.34,29.97,16,4,16,0.00
2014-2-17,25.3,19.1,15.4,24.0,14.2,9.4,96,81,69,30.36,29.71,39,11,39,0.22
2014-2-18,45.7,33.6,21.1,30.3,25.0,16.1,88,72,54,30.07,29.70,28,9,28,0.00
2014-2-19,47.7,37.5,27.6,32.8,28.9,23.3,88,72,47,30.05,29.64,18,4,18,0.00
2014-2-20,48.6,36.9,27.9,48.6,34.9,23.9,100,93,77,30.05,29.34,38,9,38,1.56
2014-2-21,37.0,33.9,30.7,31.7,24.4,15.1,86,69,48,29.84,29.47,47,12,47,0.00
2014-2-22,36.5,31.8,24.4,25.5,17.7,10.0,71,56,39,30.06,29.83,21,4,21,0.00
2014-2-23,29.1,24.0,19.4,20.1,13.4,8.6,79,64,52,30.20,30.05,20,6,20,0.00
2014-2-24,26.0,20.2,16.5,12.7,10.2,7.5,75,65,47,30.28,30.18,24,8,24,0.00
2014-2-25,23.0,19.2,13.5,15.4,10.9,3.8,82,70,58,30.26,30.14,22,6,25,0.00
2014-2-26,15.4,11.6,7.7,8.1,2.6,-3.6,84,68,44,30.24,29.74,32,8,32,0.00
2014-2-27,17.2,8.4,-9.8,12.1,2.1,-16.3,86,76,60,30.30,29.67,35,10,35,0.00
2014-2-28,23.9,7.4,-14.0,11.9,-3.3,-20.0,81,63,44,30.38,30.13,22,6,28,0.00
2014-3-1,27.3,21.8,15.2,22.7,15.1,10.8,85,76,63,30.36,30.10,21,5,21,0.04
2014-3-2,24.7,14.7,6.1,12.7,7.6,-1.7,85,74,52,30.46,30.32,22,7,22,0.02
2014-3-3,25.4,7.6,-10.5,1.1,-5.5,-17.9,77,57,27,30.58,30.45,14,2,14,0.00
2014-3-4,26.3,11.9,0.5,8.3,0.7,-7.1,76,61,44,30.49,30.27,14,2,14,0.00
2014-3-5,26.6,20.1,9.3,17.4,12.5,2.8,86,73,60,30.53,30.32,21,4,21,0.09
2014-3-6,35.2,21.9,10.9,16.5,11.1,4.1,74,63,45,30.53,30.21,16,6,22,0.00
2014-3-7,48.3,28.2,6.0,28.0,18.1,1.4,88,68,43,30.22,29.98,15,2,16,0.00
2014-3-8,35.5,30.6,18.3,32.0,26.1,14.5,92,84,71,30.30,30.01,18,6,18,0.11
2014-3-9,39.3,25.7,5.4,31.2,19.2,2.1,92,77,54,30.32,29.94,25,5,25,0.00
2014-3-10,54.4,44.7,36.0,40.8,34.8,30.4,86,69,52,29.94,29.68,25,6,25,0.00
2014-3-11,56.6,40.0,31.2,43.1,34.1,28.0,100,81,47,29.75,29.68,19,3,19,0.00
2014-3-12,38.3,26.9,13.3,34.5,23.5,8.0,100,87,73,30.12,29.60,25,12,32,0.17
2014-3-13,29.8,17.3,-3.7,24.6,10.1,-8.9,85,74,56,30.26,30.00,26,4,27,0.00
2014-3-14,52.6,41.7,29.8,37.1,31.0,24.6,81,67,48,30.00,29.64,35,9,35,0.00
2014-3-15,40.9,35.3,29.4,31.8,26.7,20.0,83,71,56,30.30,29.86,20,8,20,0.00
2014-3-16,29.4,22.4,15.4,19.7,8.9,3.1,67,56,45,30.42,30.23,24,9,24,0.00
2014-3-17,36.6,23.2,9.9,20.1,10.7,2.1,72,60,43,30.23,29.92,22,7,22,0.00
2014-3-18,47.9,35.5,22.5,35.9,27.2,18.0,86,73,57,30.03,29.80,32,8,32,0.00
2014-3-19,46.0,40.4,34.7,45.5,38.0,30.0,100,91,79,29.98,29.65,26,7,26,0.39
2014-3-20,44.2,35.8,27.8,30.0,26.1,22.2,83,68,54,30.10,29.97,20,6,22,0.00
2014-3-21,50.5,38.3,25.7,41.2,32.2,21.5,93,80,64,30.11,29.73,27,7,27,0.07
2014-3-22,45.1,36.5,27.8,41.7,30.3,20.5,91,78,65,30.31,29.77,25,10,25,0.02
2014-3-23,31.0,24.7,15.7,20.3,13.2,5.8,75,62,48,30.46,30.31,21,7,21,0.00
2014-3-24,33.2,22.6,12.4,17.7,10.2,5.4,86,61,32,30.44,30.16,19,3,19,0.00
2014-3-25,28.5,24.0,19.9,22.0,15.8,10.5,88,71,60,30.27,30.02,28,8,28,0.01
2014-3-26,37.6,26.0,15.4,19.5,15.8,11.6,88,67,41,30.42,30.16,22,4,22,0.00
2014-3-27,46.7,38.1,33.4,41.7,29.4,16.8,88,72,47,30.16,29.62,28,10,28,0.20
2014-3-28,52.3,39.9,29.4,47.6,35.3,25.7,95,84,74,30.23,29.55,40,10,40,0.02
2014-3-29,39.5,33.5,28.8,33.8,29.8,24.8,96,86,69,30.25,30.15,19,6,25,0.01
2014-3-30,56.6,38.6,20.8,31.8,25.8,18.0,94,65,30,30.31,30.14,15,2,15,0.00
2014-3-31,66.8,50.1,32.7,38.1,33.1,27.4,85,56,27,30.17,29.88,26,8,34,0.00
2014-4-1,56.7,48.6,42.1,44.5,34.4,28.0,79,58,44,30.10,29.75,35,10,35,0.05
2014-4-2,56.2,45.5,31.6,33.1,30.3,25.0,83,57,36,30.21,30.07,13,3,13,0.00
2014-4-3,49.4,39.9,33.7,41.5,35.0,29.6,100,85,46,30.12,29.75,38,10,38,1.50
2014-4-4,45.8,39.3,35.8,45.8,37.1,28.0,100,92,73,29.93,29.50,30,9,30,0.03
2014-4-5,49.2,38.5,27.9,30.0,24.4,17.5,77,59,32,30.24,29.93,31,8,31,0.00
2014-4-6,56.0,40.6,22.5,33.7,25.2,18.4,91,58,30,30.25,30.02,20,3,20,0.00
2014-4-7,54.5,41.8,32.7,39.6,32.4,26.5,94,71,37,30.03,29.61,19,4,19,0.17
2014-4-8,57.3,44.8,36.3,42.2,36.1,30.7,94,73,49,29.92,29.62,22,7,22,0.00
2014-4-9,60.2,45.9,27.3,39.8,32.0,24.7,95,63,34,30.08,29.92,24,4,24,0.00
2014-4-10,67.8,54.7,45.1,48.1,40.8,34.8,83,60,40,29.96,29.68,34,7,34,0.00
2014-4-11,70.1,51.5,31.9,46.1,31.0,23.8,100,55,19,30.07,29.91,16,2,16,0.00
2014-4-12,76.0,58.8,42.1,54.4,41.3,29.6,75,53,34,30.09,29.76,32,6,34,0.00
2014-4-13,72.0,65.9,60.5,59.7,55.9,51.8,88,71,60,29.79,29.57,38,7,38,0.05
2014-4-14,66.3,44.6,28.4,59.1,40.0,25.7,91,84,75,29.94,29.40,38,14,41,0.20
2014-4-15,35.3,29.3,23.2,25.9,17.6,11.7,91,63,38,30.30,29.92,30,10,30,0.01
2014-4-16,48.6,36.3,22.5,27.7,20.2,14.2,75,54,34,30.46,30.28,34,9,34,0.00
2014-4-17,66.6,50.6,35.2,39.2,32.2,25.6,70,51,32,30.30,30.22,30,9,31,0.00
2014-4-18,64.2,51.3,36.0,46.3,39.2,23.9,88,65,40,30.37,30.26,20,5,20,0.01
2014-4-19,63.5,47.7,30.3,40.0,32.7,23.6,88,59,34,30.44,30.30,22,7,24,0.00
2014-4-20,75.6,55.2,38.5,38.7,32.4,27.9,73,46,20,30.35,30.09,21,5,21,0.00
2014-4-21,77.4,59.3,42.6,56.9,45.2,35.8,94,64,32,30.09,29.81,33,4,33,0.29
2014-4-22,58.7,48.1,37.8,58.7,39.2,28.8,100,73,52,30.06,29.75,30,12,31,0.02
2014-4-23,60.7,45.0,31.9,35.1,30.8,26.9,82,60,30,30.19,30.06,18,6,19,0.00
2014-4-24,59.5,52.9,44.9,37.3,29.9,23.6,66,43,26,30.14,29.79,34,12,37,0.00
2014-4-25,64.5,51.2,42.9,45.9,40.7,30.6,97,70,40,29.86,29.67,31,7,31,0.38
2014-4-26,58.4,50.6,43.1,42.8,37.3,32.8,77,61,38,30.04,29.83,20,6,20,0.00
2014-4-27,60.7,49.4,40.1,38.1,33.9,26.7,79,57,37,30.14,29.95,37,15,39,0.00
2014-4-28,54.4,49.5,46.0,45.2,39.3,31.2,87,69,50,29.98,29.67,40,15,41,0.07
2014-4-29,75.4,59.3,48.9,60.5,47.7,33.1,100,72,27,29.70,29.50,56,9,56,0.11
2014-4-30,59.3,53.4,43.2,49.1,45.2,35.4,89,74,59,29.86,29.71,16,6,22,0.00
2014-5-1,48.5,44.7,39.9,43.3,40.1,33.9,94,84,74,29.85,29.77,28,6,33,0.15
2014-5-2,54.2,47.7,44.2,45.7,43.6,41.0,93,86,65,29.87,29.81,20,4,22,0.04
2014-5-3,64.0,53.5,46.4,47.4,42.0,36.1,92,68,38,29.87,29.69,32,8,32,0.07
2014-5-4,55.4,49.9,39.2,42.3,33.3,24.7,78,54,34,30.12,29.86,28,8,30,0.00
2014-5-5,61.8,50.3,37.8,39.5,35.1,30.2,82,58,36,30.11,29.94,27,5,27,0.00
2014-5-6,68.8,53.4,36.9,42.7,37.9,31.4,87,59,36,30.08,29.96,32,8,32,0.00
2014-5-7,79.0,63.2,51.0,56.8,46.6,35.7,71,55,44,29.99,29.84,30,12,30,0.00
2014-5-8,90.5,73.0,53.9,64.5,56.8,48.4,85,60,34,29.94,29.83,28,7,28,0.00
2014-5-9,78.1,69.7,58.3,65.0,59.0,47.5,98,71,42,29.86,29.69,40,8,40,0.34
2014-5-10,74.2,60.5,45.5,52.2,43.7,34.0,93,59,24,30.01,29.85,20,3,21,0.00
2014-5-11,85.7,67.2,47.9,63.0,51.8,42.6,96,62,34,30.03,29.80,26,4,28,0.79
2014-5-12,83.6,71.5,61.5,70.4,65.7,59.7,100,84,61,29.89,29.79,28,7,28,0.03
2014-5-13,74.6,67.2,54.1,70.6,63.0,49.8,100,87,71,30.04,29.78,27,6,28,0.14
2014-5-14,57.0,52.3,48.3,51.3,48.8,45.9,100,88,69,30.09,29.81,16,5,16,0.91
2014-5-15,50.2,45.2,35.8,50.2,42.4,31.4,100,91,65,30.01,29.68,26,8,26,0.15
2014-5-16,46.7,39.4,31.3,41.3,35.9,28.4,100,87,78,30.03,29.97,19,3,19,0.04
2014-5-17,59.2,46.2,33.4,42.9,34.6,26.8,98,68,30,30.15,30.01,19,3,19,0.02
2014-5-18,67.6,53.5,35.3,43.0,37.0,32.3,95,58,31,30.22,30.14,19,3,19,0.00
2014-5-19,69.9,57.3,37.9,49.1,40.2,33.8,94,57,33,30.22,29.98,28,6,30,0.01
2014-5-20,84.9,70.8,59.2,66.5,56.5,45.0,87,61,46,30.03,29.74,25,6,25,0.11
2014-5-21,85.1,73.3,64.0,70.8,62.8,52.2,100,73,34,29.83,29.71,30,3,30,1.43
2014-5-22,70.1,62.9,52.5,57.6,50.4,45.4,89,65,48,30.04,29.79,21,6,21,0.00
2014-5-23,68.9,58.1,47.4,50.5,46.7,43.5,94,68,43,30.12,30.03,18,5,19,0.00
2014-5-24,79.6,61.7,42.5,56.9,47.9,40.0,100,65,34,30.17,30.06,13,2,14,0.00
2014-5-25,85.3,68.8,50.2,59.1,50.8,47.0,98,58,27,30.09,29.96,19,2,19,0.00
2014-5-26,87.6,71.9,54.4,66.4,58.6,51.3,96,66,42,30.01,29.83,24,2,24,0.60
2014-5-27,84.5,72.7,65.6,73.8,67.5,62.3,100,85,55,29.92,29.77,28,3,28,0.70
2014-5-28,82.2,70.8,62.6,70.8,65.9,62.6,100,86,60,29.95,29.83,14,2,14,0.02
2014-5-29,84.9,71.9,59.9,63.4,57.5,50.1,87,63,33,30.04,29.95,15,3,15,0.00
2014-5-30,84.7,70.8,56.7,58.4,55.2,51.5,87,61,34,30.12,30.03,16,3,16,0.00
2014-5-31,88.0,73.5,55.6,61.4,55.7,52.7,96,58,32,30.13,30.00,21,3,21,0.00
2014-6-1,90.1,76.4,59.9,64.7,55.0,50.0,73,50,27,30.05,29.83,21,5,21,0.00
2014-6-2,79.8,75.2,71.5,72.5,67.7,63.0,91,78,63,29.90,29.72,30,8,34,0.12
2014-6-3,79.2,72.9,59.2,68.7,57.7,46.3,94,63,32,29.87,29.75,20,5,20,0.00
2014-6-4,65.0,60.1,56.6,60.7,55.9,50.8,100,86,68,29.84,29.73,18,3,18,0.92
2014-6-5,79.9,64.1,47.7,58.7,50.4,43.5,100,67,30,29.93,29.81,14,2,14,0.00
2014-6-6,84.5,66.3,50.5,62.7,50.0,44.8,100,62,27,29.98,29.87,11,1,11,0.00
2014-6-7,84.9,70.2,52.8,59.7,53.2,47.9,98,59,33,30.00,29.80,22,2,22,0.00
2014-6-8,79.6,67.9,58.1,65.3,60.0,53.5,100,78,55,29.98,29.74,14,4,14,0.63
2014-6-9,81.8,68.4,54.4,60.5,56.6,52.1,99,69,41,30.01,29.89,15,2,15,0.00
2014-6-10,75.4,66.8,59.2,65.8,60.3,56.8,100,81,59,29.91,29.77,26,4,28,0.20
2014-6-11,76.5,69.3,65.0,70.2,66.4,64.2,100,91,69,29.77,29.65,20,4,20,0.30
2014-6-12,82.2,68.7,61.3,67.2,63.3,58.5,100,85,55,29.81,29.69,14,1,14,0.02
2014-6-13,68.4,62.8,50.2,58.7,49.2,41.6,84,63,39,30.04,29.79,20,4,20,0.00
2014-6-14,79.0,63.1,44.1,55.0,45.5,41.5,100,59,28,30.15,30.01,16,2,16,0.00
2014-6-15,83.6,70.3,53.3,65.6,55.9,46.8,83,62,43,30.05,29.87,32,6,32,0.00
2014-6-16,89.7,79.9,68.4,69.3,65.8,61.4,91,65,42,30.05,29.92,15,2,15,0.00
2014-6-17,93.4,80.9,74.0,73.6,70.2,67.2,91,71,52,29.94,29.78,27,4,28,0.02
2014-6-18,86.3,73.7,67.9,76.1,71.5,64.2,100,94,64,30.00,29.82,26,2,26,0.48
2014-6-19,83.8,75.5,67.8,73.0,68.7,65.5,100,81,63,30.09,29.96,19,4,19,0.01
2014-6-20,82.8,71.9,64.5,75.4,67.3,62.7,100,86,66,30.06,29.87,18,4,18,0.67
2014-6-21,83.0,70.7,62.7,69.6,65.8,62.7,100,86,62,30.00,29.84,11,2,11,0.31
2014-6-22,88.2,75.7,64.5,72.1,68.1,64.5,100,80,48,29.91,29.82,13,1,13,0.00
2014-6-23,83.8,72.9,67.9,75.8,68.6,63.6,100,87,68,29.89,29.77,21,2,21,1.22
2014-6-24,80.1,72.3,68.8,74.0,70.0,67.8,100,93,70,29.88,29.83,12,1,12,0.78
2014-6-25,85.1,73.2,64.3,74.9,68.1,62.2,100,86,57,30.00,29.86,13,2,13,0.00
2014-6-26,85.3,71.7,63.4,68.3,65.2,63.4,100,83,50,30.06,29.97,7,0,7,0.00
2014-6-27,88.0,75.9,62.1,71.3,65.5,60.9,100,73,46,30.08,29.99,18,3,18,0.00
2014-6-28,84.1,76.8,70.3,73.0,68.8,64.1,89,77,65,30.08,29.97,21,4,21,0.00
2014-6-29,88.8,78.8,72.7,73.5,70.4,67.3,93,77,53,30.00,29.89,20,5,21,0.00
2014-6-30,86.7,76.7,68.6,73.7,70.5,65.0,100,82,60,29.95,29.66,22,5,38,0.07
2014-7-1,83.4,73.8,64.3,70.9,65.1,60.8,100,77,49,29.78,29.57,26,4,28,1.13
2014-7-2,74.2,68.6,58.6,64.6,59.6,52.1,89,74,59,29.99,29.76,16,2,16,0.00
2014-7-3,73.7,63.6,52.9,54.7,50.5,43.4,94,66,35,30.18,29.98,19,4,19,0.07
2014-7-4,81.4,66.4,49.8,63.9,51.7,47.2,100,64,33,30.32,30.18,11,0,11,0.00
2014-7-5,79.2,66.3,49.8,59.9,53.6,46.4,97,67,39,30.30,30.08,16,2,16,0.00
2014-7-6,80.5,72.4,62.3,73.0,64.6,56.8,89,77,63,30.08,29.77,22,3,22,0.13
2014-7-7,86.5,76.6,69.3,73.9,70.0,64.0,96,81,52,29.77,29.68,24,4,28,0.07
2014-7-8,82.2,74.1,67.8,72.9,65.7,59.0,99,77,48,29.79,29.57,21,3,21,0.10
2014-7-9,78.6,69.3,58.4,64.1,58.4,53.7,96,70,47,30.04,29.79,14,2,15,0.00
2014-7-10,82.4,67.0,51.1,62.3,54.0,48.4,100,67,35,30.19,30.05,11,1,11,0.00
2014-7-11,84.1,68.8,52.0,68.1,57.3,49.9,100,70,40,30.24,30.11,22,1,22,0.00
2014-7-12,81.1,73.0,66.0,72.5,66.8,61.5,91,82,64,30.15,29.88,24,3,24,0.03
2014-7-13,86.1,76.3,69.3,75.4,67.5,59.2,100,77,41,29.92,29.80,18,2,18,0.69
2014-7-14,83.6,71.6,63.7,68.2,63.6,55.1,94,78,40,29.87,29.76,12,1,13,0.36
2014-7-15,70.9,62.2,55.4,61.8,54.9,51.6,99,79,55,29.95,29.78,20,3,20,0.00
2014-7-16,72.5,60.7,50.7,58.2,53.5,48.0,100,79,53,30.05,29.94,12,2,12,0.01
2014-7-17,81.2,63.4,46.0,61.0,50.0,43.5,100,67,33,30.15,30.04,11,0,11,0.00
2014-7-18,79.9,65.5,49.9,60.5,52.3,47.7,100,66,37,30.22,30.12,14,2,15,0.00
2014-7-19,84.7,68.6,51.9,66.4,57.8,49.6,100,72,41,30.12,30.00,9,0,9,0.00
2014-7-20,85.3,71.4,57.8,70.3,61.1,54.7,100,73,45,30.08,30.00,11,0,11,0.00
2014-7-21,87.4,73.6,57.6,71.1,62.4,55.0,100,71,45,30.13,30.04,16,1,16,0.00
2014-7-22,88.8,76.0,61.0,70.8,66.3,58.9,100,74,53,30.09,29.93,24,4,24,0.00
2014-7-23,78.8,69.1,58.0,70.8,62.5,54.1,100,81,57,30.09,29.93,26,4,34,0.80
2014-7-24,81.2,65.9,55.7,63.2,55.8,51.7,100,74,40,30.16,30.05,11,1,11,0.00
2014-7-25,67.8,55.6,50.4,59.3,52.2,47.9,100,89,73,30.10,29.95,7,0,7,0.00
2014-7-26,79.6,69.5,58.6,70.3,64.4,56.2,100,85,69,29.97,29.78,13,1,13,0.00
2014-7-27,87.8,72.7,63.9,77.7,66.1,56.2,100,82,48,29.83,29.63,21,2,21,0.00
2014-7-28,65.5,61.2,50.7,60.0,54.6,47.0,96,80,61,30.06,29.79,18,5,19,0.00
2014-7-29,77.6,60.9,45.7,60.6,52.5,43.5,100,77,49,30.06,29.99,15,2,15,0.00
2014-7-30,79.4,66.4,54.5,67.1,58.3,53.1,100,78,49,30.04,29.98,15,1,15,0.06
2014-7-31,85.1,67.8,51.0,63.7,57.0,48.5,100,72,37,30.05,30.01,16,1,16,0.00
2014-8-1,83.0,67.9,57.8,69.3,61.4,55.2,100,81,49,30.11,30.04,26,0,26,0.05
2014-8-2,87.0,68.3,54.8,73.0,59.8,54.7,100,78,39,30.15,30.06,9,0,11,0.01
2014-8-3,89.9,70.4,51.6,68.4,59.3,49.9,100,72,38,30.15,30.05,11,1,12,0.00
2014-8-4,87.8,71.9,58.9,72.3,63.4,57.3,100,78,44,30.11,30.02,34,1,34,1.83
2014-8-5,80.9,70.2,65.3,74.0,67.3,63.6,100,91,67,30.07,29.99,9,0,9,1.00
2014-8-6,82.4,70.3,59.3,72.4,62.3,56.6,100,79,45,30.07,29.99,13,1,13,0.00
2014-8-7,83.4,69.0,54.7,68.1,58.1,53.0,100,72,40,30.12,30.02,14,1,14,0.00
2014-8-8,83.8,70.1,56.9,64.0,57.8,53.8,100,69,38,30.12,30.03,22,3,22,0.00
2014-8-9,83.4,70.6,58.3,63.8,59.5,53.8,98,70,47,30.10,30.02,19,3,20,0.00
2014-8-10,85.1,73.0,58.9,70.2,63.6,54.1,96,74,56,30.07,29.92,15,2,15,0.00
2014-8-11,82.2,72.9,65.8,74.9,66.7,62.3,100,82,62,29.94,29.74,15,1,16,0.27
2014-8-12,67.4,63.5,57.3,66.9,62.0,54.4,100,95,82,29.95,29.69,24,3,24,0.12
2014-8-13,80.5,66.4,51.4,66.3,57.4,50.3,100,76,45,30.02,29.95,19,2,19,0.00
2014-8-14,74.7,61.7,48.2,58.0,50.4,42.7,100,70,33,30.09,30.01,16,2,16,0.00
2014-8-15,80.1,60.5,42.2,59.0,47.8,39.8,100,68,32,30.11,29.99,13,0,13,0.00
2014-8-16,83.8,66.8,50.4,69.3,59.5,47.0,100,79,59,29.99,29.88,18,1,18,0.00
2014-8-17,86.5,73.9,62.7,72.7,66.8,60.8,100,80,56,29.96,29.88,13,1,13,0.01
2014-8-18,86.1,72.9,62.0,71.1,66.1,60.5,100,81,58,29.92,29.78,12,1,12,0.00
2014-8-19,83.2,72.1,64.0,76.0,67.1,61.6,100,86,63,29.80,29.70,32,2,32,0.01
2014-8-20,86.7,73.7,62.3,74.7,65.5,49.4,100,78,52,29.95,29.74,14,1,15,0.01
2014-8-21,80.7,71.7,64.7,50.8,15.4,-34.2,52,15,1,30.00,29.90,14,1,14,0.25
2014-8-22,87.8,76.9,69.3,74.0,40.6,-34.4,90,38,1,29.97,29.89,13,1,13,0.01
2014-8-23,84.5,76.5,69.9,75.5,72.4,66.9,100,88,66,30.00,29.91,20,3,20,0.00
2014-8-24,84.3,75.6,67.9,73.8,69.0,64.3,93,80,69,30.04,29.97,16,5,16,0.00
2014-8-25,90.7,75.2,67.6,76.5,70.6,64.4,100,87,59,30.05,29.97,15,2,21,0.89
2014-8-26,77.7,70.1,65.5,76.5,69.6,65.5,100,98,86,30.14,30.00,19,1,19,0.65
2014-8-27,83.6,71.0,62.7,70.1,64.3,60.5,100,82,50,30.13,30.07,9,1,11,0.00
2014-8-28,81.2,67.9,55.7,65.2,60.7,55.6,100,80,54,30.14,30.04,12,1,12,0.00
2014-8-29,81.2,71.6,65.2,74.2,66.1,59.8,94,83,71,30.07,29.92,19,5,19,0.24
2014-8-30,82.6,73.6,69.9,72.5,70.3,68.0,100,90,66,29.94,29.84,27,4,27,0.90
2014-8-31,82.0,73.2,66.6,75.1,70.1,66.6,100,91,69,29.95,29.87,14,1,14,0.14
2014-9-1,81.8,73.9,69.9,75.8,71.1,67.4,100,91,70,29.91,29.75,24,4,24,0.61
2014-9-2,81.6,72.6,61.8,69.9,66.1,59.6,96,82,49,29.95,29.83,15,1,15,0.01
2014-9-3,83.6,70.8,57.2,69.4,62.1,57.2,100,77,45,30.03,29.95,12,1,15,0.00
2014-9-4,82.4,73.1,64.0,71.0,66.8,60.3,93,81,67,30.07,29.94,21,2,24,0.00
2014-9-5,89.9,77.2,65.8,76.8,70.9,64.1,100,82,54,30.01,29.85,24,3,25,1.01
2014-9-6,74.7,66.1,53.1,66.3,59.5,50.6,100,82,47,30.17,29.99,14,2,14,0.05
2014-9-7,78.1,63.3,49.2,63.0,54.0,48.7,100,75,41,30.23,30.13,12,1,12,0.00
2014-9-8,76.5,63.6,51.4,59.2,55.5,51.4,100,78,49,30.17,30.02,14,2,15,0.00
2014-9-9,77.0,65.3,55.3,63.7,59.5,54.2,100,83,61,30.05,29.92,19,3,19,0.00
2014-9-10,75.8,69.9,61.0,74.2,66.7,58.6,100,90,80,29.92,29.57,26,6,31,1.42
2014-9-11,60.9,55.4,52.9,58.6,52.9,50.0,98,92,76,30.24,29.76,14,4,18,0.03
2014-9-12,57.8,53.2,49.2,51.8,49.2,47.6,97,87,71,30.32,30.20,8,1,11,0.01
2014-9-13,64.2,53.0,43.1,51.9,47.4,40.9,100,83,56,30.34,30.19,13,2,13,0.09
2014-9-14,66.0,52.3,41.1,52.2,45.0,39.5,100,79,47,30.36,30.20,18,1,18,0.00
2014-9-15,60.2,51.9,43.3,55.5,49.8,42.2,100,93,75,30.22,30.09,13,1,15,0.08
2014-9-16,70.1,56.2,45.2,56.6,49.9,42.7,100,82,49,30.21,30.10,13,1,13,0.01
2014-9-17,72.1,53.9,38.8,53.3,45.2,38.0,100,76,42,30.11,29.99,13,1,13,0.00
2014-9-18,74.0,56.2,39.6,55.1,47.4,38.5,100,76,43,30.18,30.05,9,1,13,0.00
2014-9-19,71.5,59.5,48.2,56.3,51.1,46.6,100,76,47,30.23,30.02,21,4,24,0.00
2014-9-20,79.4,64.5,51.6,67.5,58.7,47.5,100,83,64,30.02,29.77,24,3,25,0.58
2014-9-21,67.6,60.2,50.8,67.6,55.7,45.8,100,86,70,30.10,29.66,25,6,25,0.20
2014-9-22,66.6,53.3,39.2,48.5,44.1,35.9,94,73,48,30.29,30.10,9,3,13,0.00
2014-9-23,75.3,56.5,39.8,56.2,48.0,39.0,100,77,43,30.38,30.29,7,0,8,0.00
2014-9-24,74.6,59.1,44.6,56.2,50.5,44.6,100,77,43,30.41,30.29,14,1,14,0.00
2014-9-25,78.1,61.7,48.2,59.3,54.0,47.4,100,79,38,30.32,30.22,11,1,11,0.00
2014-9-26,81.6,62.9,47.3,59.1,53.6,47.3,100,76,39,30.29,30.21,13,1,13,0.00
2014-9-27,77.9,62.3,47.4,61.9,55.4,47.4,100,81,47,30.28,30.16,11,1,14,0.00
2014-9-28,82.0,64.0,51.0,63.1,55.7,51.0,100,78,40,30.19,30.06,8,0,9,0.00
2014-9-29,82.6,64.2,46.5,61.8,55.2,45.7,100,76,43,30.06,29.91,15,1,18,0.00
2014-9-30,59.5,54.0,47.9,56.6,48.2,44.5,94,81,64,30.04,29.93,13,4,16,0.00
2014-10-1,67.8,58.3,52.6,53.0,50.6,48.4,90,77,58,30.07,29.96,16,4,19,0.00
2014-10-2,73.9,65.0,57.2,66.8,58.9,50.3,100,81,73,29.99,29.71,15,3,16,0.98
2014-10-3,66.3,58.7,44.6,66.3,56.3,42.4,100,92,71,29.75,29.42,21,5,25,2.64
2014-10-4,44.6,41.7,39.5,43.0,36.6,30.2,96,83,60,29.78,29.69,22,5,26,0.36
2014-10-5,57.2,47.4,38.9,42.2,36.8,32.6,86,68,40,29.79,29.68,26,4,26,0.00
2014-10-6,63.2,51.8,42.1,51.1,43.4,38.0,90,75,43,29.72,29.57,24,3,28,0.00
2014-10-7,66.1,52.0,42.1,54.6,46.3,38.4,93,82,57,29.82,29.65,16,2,25,0.00
2014-10-8,63.5,53.7,44.2,49.1,40.4,32.0,96,65,33,30.02,29.82,24,3,24,0.00
2014-10-9,62.4,51.2,38.0,47.0,38.9,33.2,92,66,35,30.15,29.99,15,2,15,0.00
2014-10-10,60.2,47.2,34.7,46.3,38.2,33.3,100,74,45,30.20,30.13,14,2,14,0.00
2014-10-11,62.0,45.4,31.5,47.0,35.3,29.7,98,72,35,30.28,30.17,16,1,16,0.00
2014-10-12,62.6,48.4,31.3,42.5,37.0,30.0,100,69,42,30.22,29.94,22,6,25,0.00
2014-10-13,73.5,63.7,52.0,69.6,59.6,42.5,100,88,57,29.95,29.64,33,5,33,0.52
2014-10-14,70.1,63.2,56.3,63.7,59.9,53.7,97,89,75,29.65,29.49,30,6,30,0.37
2014-10-15,57.6,55.5,53.3,55.6,53.8,51.9,99,94,86,29.79,29.65,13,1,13,0.21
2014-10-16,61.5,55.2,49.4,60.5,52.9,49.4,100,93,75,29.82,29.73,14,2,14,0.00
2014-10-17,64.7,55.8,49.6,53.0,50.6,46.4,96,84,60,29.80,29.57,18,5,21,0.08
2014-10-18,49.5,46.9,40.8,46.9,43.2,36.0,96,87,77,30.19,29.80,19,7,19,0.11
2014-10-19,54.8,43.4,29.3,42.4,36.3,27.5,99,78,56,30.26,29.98,16,2,16,0.01
2014-10-20,63.2,52.4,47.3,52.5,47.0,42.0,93,82,66,29.99,29.81,14,4,14,0.06
2014-10-21,52.2,47.5,36.0,45.2,42.1,32.5,90,82,71,30.28,29.96,16,5,16,0.00
2014-10-22,55.9,41.5,29.7,43.2,35.8,28.4,100,82,55,30.41,30.26,13,1,13,0.01
2014-10-23,60.2,43.1,29.5,50.5,37.7,28.5,100,84,52,30.33,30.11,14,1,14,0.00
2014-10-24,66.9,52.6,40.6,52.3,46.7,38.2,95,82,57,30.13,29.97,15,1,15,0.00
2014-10-25,68.8,56.1,44.5,56.9,46.8,34.7,100,76,31,29.97,29.87,25,3,25,0.00
2014-10-26,65.0,50.9,34.9,47.1,35.7,30.5,94,60,29,30.02,29.92,16,2,16,0.00
2014-10-27,74.9,62.4,42.2,61.5,48.1,35.0,84,61,49,29.95,29.63,27,6,27,0.00
2014-10-28,70.1,60.2,47.9,59.1,47.1,35.4,93,63,39,29.95,29.67,26,6,27,0.09
2014-10-29,47.7,43.8,41.8,39.6,36.8,35.3,89,77,64,30.15,29.94,14,2,15,0.01
2014-10-30,52.8,46.1,42.9,38.1,36.7,34.5,82,71,52,30.18,30.04,14,1,14,0.00
2014-10-31,45.2,39.1,32.4,40.7,34.4,22.9,96,84,69,30.28,29.95,34,10,34,0.30
2014-11-1,42.9,32.5,23.8,24.4,21.8,19.1,85,66,40,30.46,30.28,27,7,27,0.00
2014-11-2,52.2,34.0,19.2,34.8,23.2,17.0,96,69,32,30.50,30.29,16,2,16,0.00
2014-11-3,64.0,52.7,41.9,41.7,33.0,25.7,55,47,40,30.29,30.03,26,6,26,0.00
2014-11-4,57.3,50.2,40.1,51.1,42.3,32.6,100,77,40,30.10,29.92,27,6,27,0.27
2014-11-5,59.6,48.0,36.2,42.5,38.7,34.1,95,72,47,30.19,29.95,18,3,18,0.00
2014-11-6,48.6,43.7,37.3,45.7,40.0,29.6,97,87,65,30.16,29.76,32,8,32,0.06
2014-11-7,43.5,38.2,34.1,36.6,32.3,29.4,95,80,61,30.20,29.93,15,3,15,0.01
2014-11-8,43.9,40.6,37.0,40.6,34.0,28.7,93,77,66,29.97,29.76,26,6,26,0.02
2014-11-9,44.9,39.3,32.1,35.2,30.6,26.9,87,72,56,29.97,29.83,27,3,27,0.00
2014-11-10,58.7,49.7,41.9,43.1,38.7,34.7,81,67,53,29.90,29.66,27,7,33,0.00
2014-11-11,55.3,46.3,34.6,46.2,39.1,28.1,94,77,59,30.06,29.65,26,8,26,0.25
2014-11-12,34.6,31.0,27.2,28.1,22.5,18.3,77,71,64,30.30,30.06,21,6,21,0.00
2014-11-13,31.3,26.2,21.1,25.9,21.5,18.0,94,83,69,30.31,30.26,15,5,21,0.11
2014-11-14,33.2,25.8,20.8,25.6,21.7,15.1,95,85,71,30.42,30.29,16,3,18,0.00
2014-11-15,30.9,23.5,13.5,20.4,16.0,10.4,91,74,53,30.46,30.28,16,2,16,0.00
2014-11-16,30.7,28.4,25.7,27.3,24.1,19.1,92,84,71,30.29,29.94,16,2,16,0.01
2014-11-17,29.4,20.6,11.4,27.3,14.4,4.9,92,77,54,29.98,29.82,31,7,31,0.00
2014-11-18,18.0,14.0,10.0,9.0,6.8,4.2,88,74,58,30.22,29.97,27,8,27,0.01
2014-11-19,32.2,22.8,15.4,22.8,15.0,5.6,85,72,64,30.20,29.79,20,8,28,0.00
2014-11-20,27.8,23.5,19.2,16.0,12.2,7.7,78,62,46,30.28,30.01,26,8,26,0.00
2014-11-21,31.3,23.8,11.4,15.5,12.6,6.1,84,63,46,30.55,30.28,21,5,21,0.00
2014-11-22,49.4,39.6,25.7,47.1,36.1,15.0,99,88,60,30.32,29.94,24,5,24,0.20
2014-11-23,54.7,49.7,46.2,51.3,47.0,43.2,100,91,77,29.95,29.12,20,7,21,1.61
2014-11-24,52.5,41.3,29.1,52.5,39.4,24.5,100,93,81,29.82,29.07,42,9,42,0.71
2014-11-25,29.0,26.6,25.0,24.4,20.8,18.5,84,78,72,30.27,29.82,27,5,30,0.00
2014-11-26,27.9,26.2,24.4,21.5,20.1,18.9,82,78,73,30.26,30.16,16,3,16,0.00
2014-11-27,31.5,27.0,21.6,29.0,23.7,16.9,94,87,82,30.42,30.19,21,4,21,0.10
2014-11-28,30.6,24.2,17.3,23.4,17.9,12.2,85,77,68,30.42,30.04,24,5,24,0.00
2014-11-29,52.2,40.7,30.1,48.4,34.3,23.4,89,78,68,30.05,29.71,25,8,25,0.00
2014-11-30,58.7,48.8,35.5,54.5,46.2,34.2,100,91,80,30.20,29.71,21,7,25,0.00
2014-12-1,35.5,25.9,15.2,34.2,18.5,10.0,95,74,60,30.67,30.20,24,9,24,0.00
2014-12-2,32.4,26.5,17.0,29.1,21.0,11.9,93,80,68,30.61,30.12,21,6,21,0.00
2014-12-3,37.8,30.8,25.4,29.4,23.3,17.6,94,75,54,30.39,30.11,27,6,27,0.00
2014-12-4,33.8,28.4,21.8,24.7,21.3,16.9,90,75,60,30.49,30.34,19,4,19,0.00
2014-12-5,37.9,34.1,31.9,32.8,29.7,24.0,91,84,74,30.34,30.20,19,4,19,0.00
2014-12-6,40.8,33.4,21.8,33.2,28.5,18.8,91,83,61,30.68,30.23,20,6,20,0.00
2014-12-7,36.9,28.9,19.5,27.0,21.8,15.6,91,75,57,30.73,30.39,26,7,26,0.00
2014-12-8,39.2,34.0,30.9,35.6,30.3,25.2,100,86,74,30.40,30.06,21,5,22,0.20
2014-12-9,38.5,36.1,32.9,37.2,34.2,27.6,100,93,81,30.36,30.07,18,6,19,0.01
2014-12-10,36.2,30.1,21.3,27.6,24.5,18.8,91,80,67,30.39,30.25,15,5,15,0.00
2014-12-11,34.9,26.2,17.5,27.6,22.1,15.3,98,85,69,30.30,30.22,19,4,19,0.00
2014-12-12,33.2,28.6,23.9,33.2,27.5,21.6,100,95,89,30.36,30.25,11,3,14,0.00
2014-12-13,48.6,40.0,33.2,44.3,38.5,33.2,100,95,78,30.30,30.11,13,3,19,0.00
2014-12-14,54.7,47.8,45.1,46.8,44.6,42.7,95,89,74,30.15,30.06,20,4,20,0.00
2014-12-15,48.9,44.7,42.8,45.1,42.5,39.0,100,92,74,30.08,29.75,24,7,24,0.12
2014-12-16,44.8,41.4,32.8,44.8,41.3,31.8,100,100,97,30.08,29.67,21,6,22,0.29
2014-12-17,32.9,28.8,27.2,31.8,23.7,20.5,96,81,74,30.30,30.08,24,8,24,0.00
2014-12-18,27.9,27.2,26.7,23.3,22.0,20.9,83,81,76,30.34,30.26,13,3,13,0.00
2014-12-19,35.8,29.3,25.8,26.6,23.5,20.7,89,79,65,30.37,30.27,14,2,14,0.00
2014-12-20,31.0,27.8,23.0,29.5,25.8,20.5,94,92,87,30.35,30.29,5,0,5,0.01
2014-12-21,36.6,31.7,29.5,28.9,27.5,25.4,93,85,73,30.33,30.14,20,6,20,0.00
2014-12-22,38.0,32.6,27.0,37.0,29.6,23.6,96,89,82,30.14,29.74,24,9,24,0.18
2014-12-23,52.8,45.0,38.0,49.1,41.5,37.0,100,89,60,29.81,29.66,24,4,24,0.14
2014-12-24,41.5,38.4,33.2,41.0,38.3,33.2,100,99,96,29.75,29.41,18,6,18,0.82
2014-12-25,38.5,35.8,33.8,36.2,32.0,28.8,100,86,75,30.12,29.61,25,6,25,0.00
2014-12-26,51.0,41.8,32.9,41.6,36.6,30.5,93,83,67,30.14,30.07,19,5,19,0.00
2014-12-27,48.5,42.8,34.4,48.5,40.5,29.7,100,92,81,30.12,29.96,26,8,27,0.08
2014-12-28,36.0,31.2,19.9,29.7,24.3,15.8,84,76,57,30.28,30.07,14,4,14,0.00
2014-12-29,35.8,26.0,19.2,28.2,19.2,14.5,95,77,46,30.51,30.28,13,3,14,0.00
2014-12-30,26.4,19.6,14.3,18.3,12.0,6.5,83,73,56,30.66,30.50,19,3,19,0.00
2014-12-31,18.4,14.6,8.6,7.0,3.0,-0.4,71,60,43,30.62,30.22,26,6,28,0.00
2015-1-1,29.5,22.4,14.9,16.3,10.4,4.8,69,60,50,30.22,30.04,31,8,31,0.00
2015-1-2,36.2,27.4,20.3,24.3,19.7,14.8,83,73,60,30.39,30.17,11,1,12,0.00